Date,TemperatureHighF,TemperatureAvgF,TemperatureLowF,DewpointHighF,DewpointAvgF,DewpointLowF,HumidityHigh,HumidityAvg,HumidityLow,PressureMaxIn,PressureMinIn,WindSpeedMaxMPH,WindSpeedAvgMPH,GustSpeedMaxMPH,PrecipitationSumIn
2013-7-13,105.6,98.3,87.4,62.2,60.6,58.3,42,30,24,29.12,29.00,4,0,6,0.00
2013-7-14,105.6,85.5,75.2,69.3,64.5,57.8,78,51,31,29.15,29.06,5,1,8,0.00
2013-7-15,75.2,72.0,67.5,73.8,70.2,66.3,98,94,79,29.24,29.09,4,0,6,2.21
2013-7-16,91.8,78.7,73.0,76.8,72.7,67.0,96,83,50,29.36,29.21,7,1,9,0.03
2013-7-17,92.8,77.2,72.5,77.1,72.3,70.1,97,86,52,29.39,29.30,13,1,19,0.79
2013-7-18,94.3,81.9,72.3,78.2,70.9,65.9,97,73,43,29.42,29.18,6,1,12,0.00
2013-7-19,99.1,84.2,71.1,76.1,69.4,63.1,95,66,35,29.30,29.09,8,1,10,0.00
2013-7-20,98.1,85.2,72.9,73.6,70.1,64.8,92,64,38,29.24,29.03,8,2,10,0.00
2013-7-21,99.3,81.8,73.6,76.5,72.8,68.8,96,77,39,29.15,29.06,11,2,15,1.47
2013-7-22,97.0,86.1,77.5,77.4,72.9,65.8,94,68,41,29.21,29.06,8,3,13,0.00
2013-7-23,98.6,88.1,79.0,75.8,70.8,63.8,84,60,36,29.21,29.06,7,3,13,0.00
2013-7-24,99.5,87.2,77.2,78.2,73.9,68.9,88,67,43,29.21,29.09,6,2,8,0.00
2013-7-25,101.8,88.1,77.0,77.3,71.5,65.4,87,61,37,29.24,29.12,6,1,12,0.00
2013-7-26,103.6,88.7,77.0,75.0,70.5,65.9,90,58,36,29.24,29.06,6,2,8,0.48
2013-7-27,94.1,82.4,76.1,77.5,72.3,65.7,95,74,45,29.21,29.09,5,1,8,0.00
2013-7-28,98.2,83.4,69.4,78.7,71.8,67.3,94,71,46,29.18,29.00,6,2,10,0.00
2013-7-29,99.0,88.3,79.0,76.0,70.4,61.6,86,60,32,29.21,29.12,9,4,13,0.00
2013-7-30,100.4,88.1,77.4,75.6,69.7,61.7,84,58,31,29.30,29.12,7,3,13,0.00
2013-7-31,107.1,89.8,76.5,74.3,68.2,63.5,80,53,27,29.33,29.12,5,1,6,0.00
2013-8-1,105.6,89.2,74.8,77.0,69.7,65.8,85,56,31,29.24,29.06,4,1,6,0.00
2013-8-2,103.3,89.7,76.3,70.7,66.3,60.6,72,49,29,29.18,29.06,6,2,10,0.00
2013-8-3,101.5,89.2,77.5,73.7,68.9,62.8,83,54,32,29.24,29.12,6,2,13,0.00
2013-8-4,99.3,88.7,77.9,76.2,71.1,66.1,84,58,38,29.30,29.12,8,3,10,0.00
2013-8-5,104.2,90.2,77.4,72.9,67.5,61.2,78,51,28,29.27,29.06,7,3,10,0.00
2013-8-6,104.0,90.6,77.5,76.0,69.1,60.6,80,53,28,29.18,29.00,7,3,10,0.00
2013-8-7,108.0,91.5,77.9,76.2,69.6,58.8,86,53,29,29.12,28.94,4,4,4,0.00
2013-8-8,104.4,90.7,77.4,74.7,68.0,59.1,84,52,25,29.12,28.97,6,3,10,0.00
2013-8-9,104.4,89.7,76.5,73.3,65.4,55.2,85,50,25,29.18,29.06,5,2,7,0.00
2013-8-10,107.6,90.0,74.8,74.7,68.2,57.4,81,53,28,29.27,29.12,0,0,0,0.00
2013-8-11,104.4,88.4,75.4,75.9,70.4,64.9,83,59,34,29.33,29.15,0,0,0,0.00
2013-8-12,102.6,87.6,75.9,73.9,69.1,63.2,88,58,35,29.30,29.12,0,0,0,0.00
2013-8-13,107.6,91.2,76.8,72.4,66.7,60.6,78,48,26,29.27,29.06,8,2,11,0.00
2013-8-14,108.5,86.8,75.2,76.4,70.5,60.3,95,62,29,29.24,29.09,6,2,8,0.72
2013-8-15,95.4,79.4,71.1,79.1,73.7,69.2,97,85,50,29.27,29.12,5,1,10,0.11
2013-8-16,94.6,78.8,70.2,74.9,69.4,62.2,98,77,38,29.33,29.12,6,1,9,0.00
2013-8-17,98.8,82.2,68.9,74.8,65.9,58.1,94,63,31,29.30,29.12,5,1,10,0.00
2013-8-18,99.0,81.4,65.8,69.7,63.3,57.8,89,59,31,29.30,29.18,4,1,7,0.00
2013-8-19,100.6,83.1,67.8,71.5,64.4,60.0,88,58,31,29.27,29.12,6,1,8,0.00
2013-8-20,101.3,84.3,68.4,70.1,64.2,58.3,86,55,28,29.27,29.12,7,2,10,0.00
2013-8-21,101.1,84.0,73.4,75.0,70.0,64.8,88,66,37,29.33,29.12,8,2,14,0.00
2013-8-22,102.9,93.5,82.9,77.9,69.0,64.7,79,47,35,29.33,29.12,6,2,8,0.00
2013-8-23,103.8,88.0,75.4,76.4,69.0,63.3,89,58,30,29.27,29.09,6,2,10,0.00
2013-8-24,106.5,88.0,74.3,74.8,68.1,62.5,80,55,31,29.27,29.12,7,1,10,0.00
2013-8-25,106.9,87.8,74.5,76.0,69.8,64.6,88,59,30,29.33,29.21,6,2,11,0.00
2013-8-26,96.1,83.5,75.9,75.0,70.8,65.9,87,68,40,29.36,29.21,8,3,13,0.00
2013-8-27,87.4,79.2,74.7,80.1,72.4,67.1,95,81,58,29.36,29.21,8,3,11,0.79
2013-8-28,100.4,83.8,72.1,78.2,69.9,64.3,96,68,37,29.33,29.18,6,1,10,0.00
2013-8-29,106.7,86.8,72.0,76.1,68.5,61.2,91,60,29,29.33,29.12,4,1,6,0.00
2013-8-30,103.5,92.1,77.4,68.6,65.0,61.2,73,44,27,29.21,29.06,4,0,4,0.00
2013-8-31,109.6,90.0,73.6,74.5,67.2,63.1,82,51,27,29.18,29.00,5,1,8,0.00
2013-9-1,108.1,89.6,75.6,76.3,68.2,63.3,79,53,29,29.12,29.00,5,1,7,0.00
2013-9-2,106.9,90.2,78.3,75.5,69.0,64.1,76,53,29,29.21,29.03,5,1,7,0.00
2013-9-3,106.3,87.3,72.5,75.4,68.1,62.8,86,57,27,29.21,29.06,6,1,12,0.00
2013-9-4,102.4,86.2,73.9,80.2,70.5,63.8,95,63,33,29.30,29.12,9,2,16,0.21
2013-9-5,102.6,87.6,75.9,76.4,70.0,63.8,86,60,34,29.36,29.18,8,2,12,0.00
2013-9-6,103.5,87.1,72.9,78.4,69.2,63.8,90,60,32,29.33,29.12,6,2,9,0.00
2013-9-7,102.6,85.3,71.8,77.5,70.0,64.6,90,64,32,29.27,29.09,12,2,17,0.00
2013-9-8,99.9,83.6,72.5,77.2,70.6,65.0,93,69,36,29.21,29.06,7,2,10,0.00
2013-9-9,98.2,80.9,71.6,75.0,70.2,64.7,92,73,40,29.24,29.09,12,2,21,0.00
2013-9-10,94.5,81.1,73.4,75.8,71.0,65.7,94,74,45,29.30,29.15,10,3,15,0.00
2013-9-11,99.3,85.0,75.4,78.0,68.7,59.1,90,63,30,29.36,29.18,6,2,9,0.00
2013-9-12,101.8,85.0,70.3,76.5,66.0,58.6,89,58,28,29.30,29.12,5,1,8,0.00
2013-9-13,106.2,84.6,70.9,72.5,65.9,59.7,83,59,27,29.21,29.03,6,1,8,0.00
2013-9-14,99.3,87.6,82.8,70.3,66.4,60.4,64,50,28,29.15,29.03,8,2,13,0.00
2013-9-15,96.3,84.8,74.1,74.6,68.7,63.6,87,61,39,29.24,29.12,6,2,9,0.00
2013-9-16,99.9,82.5,73.4,77.3,71.6,65.5,94,73,38,29.30,29.15,7,1,11,0.17
2013-9-17,94.6,82.2,74.5,79.2,72.2,66.2,96,75,46,29.30,29.12,7,1,11,0.00
2013-9-18,96.8,83.9,72.5,76.7,69.2,62.3,94,65,35,29.24,29.06,7,2,10,0.00
2013-9-19,93.9,81.0,76.1,79.5,73.6,68.1,93,80,47,29.18,29.00,9,1,12,0.04
2013-9-20,78.8,74.7,70.2,76.7,73.2,69.0,98,95,92,29.12,29.00,4,1,6,1.63
2013-9-21,91.9,76.0,63.3,69.4,61.1,48.7,97,66,30,29.18,29.06,4,1,7,0.00
2013-9-22,93.4,72.4,54.9,61.7,53.9,47.1,93,58,28,29.15,29.00,5,1,8,0.00
2013-9-23,95.4,74.6,55.9,62.6,55.9,52.7,91,59,27,29.09,28.97,5,1,7,0.00
2013-9-24,102.6,78.8,60.4,68.8,60.4,56.4,88,59,27,29.15,29.03,4,1,6,0.00
2013-9-25,101.1,81.0,64.4,70.6,62.6,56.2,90,58,31,29.12,28.94,6,1,9,0.00
2013-9-26,97.9,81.9,65.1,72.4,60.2,54.7,80,51,27,29.09,29.00,7,2,10,0.00
2013-9-27,91.4,81.0,74.5,77.5,74.0,69.8,92,80,58,29.12,29.00,11,3,14,0.00
2013-9-28,92.7,81.6,70.9,79.1,74.2,67.3,90,79,57,29.24,29.06,6,2,13,0.04
2013-9-29,83.7,70.3,64.2,67.6,63.5,59.1,93,80,48,29.33,29.12,3,1,5,0.00
2013-9-30,95.0,74.5,55.9,70.2,59.2,53.8,97,65,33,29.18,29.00,5,1,9,0.00
2013-10-1,95.2,78.9,63.1,78.1,66.2,57.7,95,68,39,29.12,29.00,6,2,11,0.00
2013-10-2,96.3,83.1,75.2,76.9,71.0,64.3,93,70,41,29.15,29.03,7,3,11,0.00
2013-10-3,96.1,84.2,75.4,74.4,69.7,64.3,91,65,39,29.15,29.00,8,3,13,0.00
2013-10-4,96.1,83.2,75.0,72.8,68.6,64.5,85,65,39,29.12,29.00,9,3,14,0.00
2013-10-5,97.3,78.5,65.1,74.8,62.1,41.0,88,60,36,29.33,29.06,6,2,10,0.00
2013-10-6,89.8,77.1,55.2,55.4,37.0,-10.0,49,27,3,29.39,29.24,4,1,8,0.00
2013-10-7,94.1,68.4,47.1,53.1,43.6,36.1,77,46,17,29.39,29.24,4,1,7,0.00
2013-10-8,92.8,70.6,48.6,60.8,48.3,42.2,82,50,25,29.33,29.15,6,2,10,0.00
2013-10-9,88.7,72.3,52.7,64.8,54.1,45.5,88,56,33,29.30,29.12,7,2,15,0.00
2013-10-10,88.7,76.2,65.3,68.5,63.3,59.5,93,67,41,29.24,29.06,8,3,13,0.00
2013-10-11,90.9,79.9,72.7,74.3,69.6,64.7,88,73,48,29.15,29.00,8,2,10,0.00
2013-10-12,95.5,82.8,74.1,78.7,72.1,67.2,95,73,42,29.21,29.09,7,2,9,0.04
2013-10-13,74.8,70.8,66.7,72.5,69.4,65.7,98,95,87,29.42,29.21,8,2,12,1.19
2013-10-14,83.1,75.5,71.4,76.1,72.2,70.0,98,90,66,29.33,29.12,6,2,8,0.10
2013-10-15,81.3,72.5,57.6,73.9,67.2,54.0,92,84,68,29.27,29.09,5,1,9,0.00
2013-10-16,63.0,57.7,53.4,60.0,56.2,52.9,98,95,89,29.36,29.21,3,0,6,1.27
2013-10-17,79.2,64.7,49.5,61.2,51.5,46.4,97,67,38,29.39,29.18,4,1,6,0.00
2013-10-18,72.3,65.5,57.6,64.0,58.3,49.7,88,78,69,29.27,29.09,5,2,8,0.00
2013-10-19,74.7,59.5,46.8,52.8,43.6,37.1,84,59,33,29.47,29.27,5,1,8,0.00
2013-10-20,78.4,60.9,42.8,54.1,46.6,39.2,95,63,38,29.33,29.12,1,0,2,0.00
2013-10-21,85.1,69.1,61.0,68.6,58.8,51.6,91,71,54,29.33,29.12,0,0,0,0.00
2013-10-22,84.7,66.9,51.1,53.5,47.3,40.8,81,54,27,29.42,29.30,0,0,0,0.00
2013-10-23,83.8,80.2,62.8,46.6,45.4,42.2,47,30,26,29.36,29.30,0,0,0,0.00
2013-10-24,82.2,75.2,64.8,49.2,48.4,45.0,55,40,30,29.42,29.36,3,1,4,0.00
2013-10-25,78.1,76.3,64.8,59.5,57.0,48.2,55,51,48,29.44,29.42,5,3,8,0.00
2013-10-27,77.4,67.8,64.8,64.8,62.5,58.9,94,84,53,29.42,29.27,2,1,4,0.00
2013-10-28,80.6,75.7,68.7,68.9,66.9,64.8,96,75,62,29.30,29.18,6,3,9,0.00
2013-10-29,81.7,80.4,75.4,68.8,67.7,66.8,80,66,63,29.24,29.18,5,3,8,0.00
2013-11-1,83.5,69.1,62.4,68.4,42.6,9.2,81,44,6,29.30,29.09,5,1,5,0.00
2013-11-2,77.7,58.9,47.3,46.6,35.1,31.8,65,44,22,29.56,29.30,2,0,4,0.00
2013-11-3,73.8,57.5,38.5,52.4,40.0,33.2,91,56,33,29.47,29.21,7,2,10,0.00
2013-11-4,65.3,63.2,61.7,62.6,57.9,52.4,93,83,67,29.27,29.15,8,2,11,0.04
2013-11-5,77.5,73.7,63.7,66.8,65.7,61.6,97,77,68,29.21,29.09,6,2,9,0.00
2013-11-6,73.4,61.2,59.2,66.8,52.3,45.6,84,73,60,29.44,29.12,4,1,7,0.00
2013-11-7,64.2,55.9,38.8,45.6,38.4,35.3,88,56,38,29.68,29.44,2,0,4,0.00
2013-11-8,63.0,61.3,59.9,38.7,38.4,38.3,45,43,40,29.62,29.44,3,0,4,0.00
2013-11-11,65.3,64.0,59.9,54.9,52.3,38.5,71,66,45,29.44,29.39,2,0,2,0.00
2013-11-12,63.9,59.6,46.8,54.3,47.6,27.6,71,65,47,29.86,29.39,2,1,4,0.00
2013-11-13,57.6,50.7,42.6,30.2,27.4,25.1,51,41,35,29.86,29.62,3,0,6,0.00
2013-11-14,66.0,56.0,31.1,43.9,37.1,24.7,84,51,33,29.65,29.24,7,2,11,0.00
2013-11-15,82.8,64.5,51.3,59.1,52.4,43.9,92,67,41,29.27,29.03,5,1,7,0.00
2013-11-16,77.5,70.7,61.5,69.0,63.7,56.5,90,79,64,29.12,28.94,5,2,6,0.00
2013-11-17,93.6,73.9,57.0,75.0,58.5,44.3,97,64,27,29.18,28.94,4,2,6,0.00
2013-11-18,79.5,64.3,51.6,56.1,50.2,45.0,83,62,43,29.36,29.18,3,0,4,0.00
2013-11-19,76.5,62.7,49.1,53.0,47.2,43.6,83,59,36,29.39,29.18,6,2,8,0.00
2013-11-20,74.1,65.4,59.2,64.8,58.7,51.4,96,79,68,29.21,29.06,6,3,10,0.00
2013-11-21,77.7,70.6,66.0,71.6,67.5,64.0,98,90,76,29.30,29.12,6,1,10,0.00
2013-11-22,67.8,39.7,34.0,65.4,38.5,33.0,98,95,86,29.65,29.27,5,2,10,0.95
2013-11-23,40.3,37.7,35.2,39.1,36.5,34.0,98,95,89,29.74,29.59,5,2,10,0.00
2013-11-24,39.9,37.4,34.0,38.6,33.2,30.0,95,85,75,29.74,29.53,5,1,10,0.25
2013-11-25,41.0,37.6,34.0,39.9,36.2,31.9,98,95,88,29.56,29.30,5,1,8,0.34
2013-11-26,52.9,41.7,36.5,38.9,32.7,25.2,90,72,47,29.59,29.36,6,2,12,0.00
2013-11-27,54.5,40.6,31.3,30.7,25.1,20.9,73,55,36,29.71,29.53,4,1,6,0.00
2013-11-28,57.7,41.2,30.4,36.1,29.3,23.4,87,65,40,29.62,29.47,4,1,7,0.00
2013-11-29,62.4,46.3,28.6,50.3,39.1,23.6,92,77,56,29.71,29.53,4,1,8,0.00
2013-11-30,66.0,56.4,46.4,56.0,50.3,41.8,95,80,69,29.56,29.36,4,1,7,0.00
2013-12-1,71.1,61.1,52.2,61.7,55.8,51.3,98,84,62,29.42,29.12,7,1,12,0.00
2013-12-2,84.6,61.7,45.3,61.8,46.1,28.4,97,63,16,29.15,28.88,8,1,12,0.00
2013-12-3,86.7,59.2,38.8,52.4,41.6,34.7,93,57,19,28.91,28.77,5,0,6,0.00
2013-12-4,83.5,61.2,47.5,62.9,52.5,39.3,93,74,48,29.00,28.85,6,1,7,0.00
2013-12-5,60.1,42.5,31.1,59.3,32.8,21.0,98,69,51,29.36,28.97,4,2,8,0.00
2013-12-6,34.3,31.9,27.9,31.5,25.8,18.3,93,78,67,29.68,29.33,5,2,8,0.04
2013-12-7,31.1,28.1,25.5,20.2,17.1,13.6,71,63,57,29.71,29.47,5,1,8,0.00
2013-12-8,49.3,36.1,28.4,37.5,29.7,19.9,90,78,61,29.47,29.18,5,1,6,0.00
2013-12-9,40.5,36.6,32.5,39.4,34.5,29.1,97,92,85,29.59,29.24,4,1,8,0.04
2013-12-10,49.8,35.3,25.9,29.1,23.3,19.5,86,64,40,29.74,29.50,5,1,6,0.00
2013-12-11,58.6,40.8,25.5,35.9,27.1,20.1,88,61,37,29.77,29.47,4,1,6,0.00
2013-12-12,56.7,42.4,29.1,36.0,29.1,22.0,79,60,44,29.80,29.47,6,1,7,0.00
2013-12-13,47.8,45.9,43.9,46.4,40.8,31.5,98,83,59,29.50,29.06,6,2,9,0.08
2013-12-14,54.3,43.3,33.1,45.6,35.1,24.9,98,75,47,29.56,29.03,5,1,10,0.00
2013-12-15,61.3,41.2,26.6,38.7,29.4,21.7,87,65,38,29.62,29.42,4,1,5,0.00
2013-12-16,72.3,45.2,27.0,42.6,30.5,22.5,93,61,26,29.50,29.36,5,1,9,0.00
2013-12-17,72.1,47.7,30.6,45.0,33.3,25.7,87,61,32,29.53,29.39,4,1,5,0.00
2013-12-18,72.7,50.6,32.0,53.8,40.2,27.4,89,70,44,29.50,29.24,7,1,10,0.00
2013-12-19,71.2,63.8,54.9,60.1,56.2,49.5,94,77,60,29.24,29.00,8,2,15,0.00
2013-12-20,73.4,67.0,56.8,66.2,62.1,44.9,95,85,65,29.06,28.85,6,2,10,0.00
2013-12-21,67.6,50.3,42.1,58.4,43.0,36.7,98,79,37,29.03,28.80,8,2,12,0.04
2013-12-22,56.3,43.8,32.5,40.0,33.0,25.0,93,68,42,29.59,29.03,6,1,8,0.04
2013-12-23,58.5,38.6,25.3,36.7,25.8,21.1,89,63,35,29.77,29.59,4,1,6,0.04
2013-12-24,64.0,43.0,25.2,39.1,28.2,20.9,94,60,33,29.74,29.44,7,2,11,0.00
2013-12-25,62.2,49.5,40.5,47.9,40.0,29.9,89,71,55,29.62,29.42,5,2,6,0.00
2013-12-26,58.5,43.8,32.2,44.2,34.5,28.5,92,71,47,29.68,29.50,4,1,5,0.00
2013-12-27,59.2,49.1,40.1,46.9,39.8,35.4,92,72,45,29.65,29.50,4,0,6,0.00
2013-12-28,67.1,50.8,38.5,46.7,41.8,35.0,94,73,45,29.50,29.18,5,1,6,0.00
2013-12-29,59.5,48.0,32.7,49.7,41.8,27.7,91,79,49,29.53,29.15,5,1,9,0.00
2013-12-30,50.2,38.8,30.4,28.7,24.2,18.9,80,57,41,29.59,29.47,4,1,5,0.00
2013-12-31,59.4,43.3,30.4,35.3,30.1,25.1,86,62,38,29.68,29.42,5,1,8,0.00
2014-1-1,72.3,51.5,33.1,50.5,40.6,26.9,88,68,45,29.44,29.12,12,2,19,0.00
2014-1-2,55.6,41.2,28.0,44.9,24.2,17.3,82,52,36,29.68,29.33,5,2,10,0.00